This is the latest recevied weather packets stored in our database for station/object SQ6RR-12. If no packets are shown the sender has not sent any weather packets the latest 10 day(s).
| Time | Temp. | Humidity | Pressure | Rain* | Wind** | Luminosity | Snow |
|---|---|---|---|---|---|---|---|
| 1777926537 | 14.44° C | 10% | 1013.6 hPa | 0 mm | - | - | - |
| 1777926276 | 14.44° C | 10% | 1013.6 hPa | 0 mm | - | - | - |
| 1777926012 | 14.44° C | 10% | 1013.6 hPa | 0 mm | - | - | - |
| 1777925746 | 15° C | 10% | 1013.6 hPa | 0 mm | - | - | - |
| 1777925492 | 14.44° C | 10% | 1013.7 hPa | 0 mm | - | - | - |
| 1777925232 | 15° C | 10% | 1013.7 hPa | 0 mm | - | - | - |
| 1777924972 | 15° C | 10% | 1013.7 hPa | 0 mm | - | - | - |
| 1777924712 | 15° C | 10% | 1013.7 hPa | 0 mm | - | - | - |
| 1777924444 | 15° C | 10% | 1013.8 hPa | 0 mm | - | - | - |
| 1777924182 | 15° C | 10% | 1013.7 hPa | 0 mm | - | - | - |
| 1777923907 | 15° C | 99% | 1013.7 hPa | 0 mm | - | - | - |
| 1777923621 | 15° C | 98% | 1013.8 hPa | 0 mm | - | - | - |
| 1777923356 | 15.56° C | 97% | 1013.7 hPa | 0 mm | - | - | - |
| 1777923067 | 15.56° C | 96% | 1013.7 hPa | 0 mm | - | - | - |
| 1777922792 | 15.56° C | 95% | 1013.7 hPa | 0 mm | - | - | - |
| 1777922527 | 15.56° C | 94% | 1013.7 hPa | 0 mm | - | - | - |
| 1777922252 | 15.56° C | 92% | 1013.6 hPa | 0 mm | - | - | - |
| 1777921977 | 16.11° C | 90% | 1013.6 hPa | 0 mm | - | - | - |
| 1777921702 | 16.67° C | 89% | 1013.6 hPa | 0 mm | - | - | - |
| 1777921427 | 16.67° C | 86% | 1013.5 hPa | 0 mm | - | - | - |
| 1777921157 | 16.11° C | 81% | 1013.6 hPa | 0 mm | - | - | - |
| 1777920892 | 16.11° C | 79% | 1013.5 hPa | 0 mm | - | - | - |
| 1777920617 | 16.67° C | 78% | 1013.5 hPa | 0 mm | - | - | - |
| 1777920337 | 16.67° C | 72% | 1013.4 hPa | 0 mm | - | - | - |
| 1777920080 | 16.67° C | 71% | 1013.4 hPa | 0 mm | - | - | - |
* Rain latest hour (hover to see other rain measurements)
** Current wind speed in m/s (hover to see current wind gust speed)